Andrews, NC

4:48 PM EDT on April 25, 2017 (GMT -0400)
Andrews

Weather History for KRHP - October, 2013

Change the Weather History Date:

Wednesday, October 30, 2013

  Actual Average (KMMI) Record (KMMI)
Temperature  
Mean Temperature 62 °F -  
Max Temperature 75 °F 67 °F 82 °F (2016)
Min Temperature 50 °F 41 °F 30 °F (2014)
Degree Days  
Heating Degree Days 2    
Growing Degree Days 12 (Base 50)    
Moisture  
Dew Point 53 °F    
Average Humidity 82    
Maximum Humidity 99    
Minimum Humidity 49    
Precipitation  
Precipitation 0.00 in - - ()
Sea Level Pressure  
Sea Level Pressure 30.27 in    
Wind  
Wind Speed 1 mph (SW)    
Max Wind Speed 9 mph    
Max Gust Speed -    
Visibility 8 miles    
Events      
Averages and records for this station are not official NWS values.
T = Trace of Precipitation, MM = Missing Value Source: NWS Daily Summary

Daily Weather History Graph

Daily Weather History Graph

Search for Another Location

Airport or City:

Trip Planner

Search our weather history database for the weather conditions in past years. The results will help you decide how hot, cold, wet, or windy it might be!

Date:

Astronomy

Oct. 30, 2013 Rise Set
Actual Time 7:55 AM EDT 6:42 PM EDT
Civil Twilight 7:28 AM EDT 7:08 PM EDT
Nautical Twilight 6:58 AM EDT 7:38 PM EDT
Astronomical Twilight 6:29 AM EDT 8:08 PM EDT
Moon 3:51 AM EDT (10/30) 4:19 PM EDT (10/30)
Length of Visible Light 11h 39m
Length of Day
10h 47m
Waning Crescent, 17% of the Moon is Illuminated
Oct 30
Waning Crescent
Nov 3
New
Nov 10
First Quarter
Nov 17
Full
Nov 25
Last Quarter

Hourly Weather History & Observations

Time (EDT) Temp. Dew Point Humidity Pressure Visibility Wind Dir Wind Speed Gust Speed Precip Events Conditions
12:15 AM 50.9 °F 50.2 °F 97% 30.31 in 7.0 mi Calm Calm - N/A   Mostly Cloudy
12:35 AM 51.3 °F 50.5 °F 97% 30.31 in 7.0 mi Calm Calm - N/A   Overcast
12:55 AM 51.4 °F 50.9 °F 98% 30.30 in 7.0 mi Calm Calm - N/A   Overcast
1:15 AM 51.4 °F 50.9 °F 98% 30.30 in 7.0 mi Calm Calm - N/A   Overcast
1:35 AM 51.6 °F 50.9 °F 97% 30.30 in 7.0 mi Calm Calm - N/A   Overcast
1:55 AM 51.1 °F 50.4 °F 97% 30.30 in 5.0 mi Calm Calm - N/A   Overcast
2:15 AM 51.4 °F 50.9 °F 98% 30.29 in 7.0 mi Calm Calm - N/A   Overcast
2:35 AM 51.8 °F 50.9 °F 97% 30.29 in 7.0 mi Calm Calm - N/A   Overcast
2:55 AM 51.8 °F 51.1 °F 97% 30.30 in 7.0 mi Calm Calm - N/A   Overcast
3:15 AM 51.4 °F 50.5 °F 97% 30.30 in 7.0 mi Calm Calm - N/A   Overcast
3:35 AM 51.4 °F 50.7 °F 97% 30.30 in 7.0 mi Calm Calm - N/A   Overcast
3:55 AM 52.0 °F 50.9 °F 96% 30.30 in 7.0 mi Calm Calm - N/A   Overcast
4:15 AM 52.0 °F 51.1 °F 97% 30.30 in 7.0 mi Calm Calm - N/A   Overcast
4:35 AM 52.2 °F 51.1 °F 96% 30.29 in 7.0 mi Calm Calm - N/A   Overcast
4:55 AM 52.2 °F 51.3 °F 97% 30.29 in 7.0 mi Calm Calm - N/A   Overcast
5:15 AM 51.4 °F 50.5 °F 97% 30.29 in 7.0 mi Calm Calm - N/A   Overcast
5:35 AM 51.3 °F 50.5 °F 97% 30.30 in 7.0 mi Calm Calm - N/A   Overcast
5:55 AM 51.4 °F 50.9 °F 98% 30.30 in 7.0 mi Calm Calm - N/A   Overcast
6:15 AM 51.4 °F 50.5 °F 97% 30.30 in 7.0 mi Calm Calm - N/A   Overcast
6:35 AM 51.1 °F 50.4 °F 97% 30.31 in 7.0 mi Calm Calm - N/A   Overcast
6:55 AM 50.9 °F 50.2 °F 97% 30.32 in 7.0 mi Calm Calm - N/A   Overcast
7:15 AM 51.3 °F 50.4 °F 97% 30.32 in 7.0 mi Calm Calm - N/A   Overcast
7:35 AM 50.9 °F 50.0 °F 97% 30.31 in 7.0 mi Calm Calm - N/A   Overcast
7:55 AM 50.0 °F 49.6 °F 99% 30.32 in 5.0 mi Calm Calm - N/A   Overcast
8:15 AM 50.4 °F 50.0 °F 99% 30.32 in 4.0 mi Calm Calm - N/A   Overcast
8:35 AM 51.3 °F 50.7 °F 98% 30.32 in 5.0 mi Calm Calm - N/A   Overcast
8:55 AM 52.0 °F 51.1 °F 97% 30.33 in 5.0 mi Calm Calm - N/A   Overcast
9:15 AM 52.9 °F 51.8 °F 96% 30.34 in 7.0 mi Calm Calm - N/A   Overcast
9:35 AM 54.0 °F 52.3 °F 94% 30.34 in 7.0 mi Calm Calm - N/A   Overcast
9:55 AM 54.9 °F 53.1 °F 94% 30.34 in 10.0 mi Calm Calm - N/A   Overcast
10:15 AM 57.0 °F 54.0 °F 89% 30.34 in 10.0 mi Calm Calm - N/A   Scattered Clouds
10:35 AM 60.8 °F 54.5 °F 80% 30.34 in 10.0 mi Calm Calm - N/A   Clear
10:55 AM 61.0 °F 54.5 °F 79% 30.33 in 10.0 mi Calm Calm - N/A   Clear
11:15 AM 63.9 °F 55.0 °F 73% 30.32 in 10.0 mi Calm Calm - N/A   Clear
11:35 AM 66.0 °F 54.5 °F 66% 30.32 in 10.0 mi Calm Calm - N/A   Clear
11:55 AM 68.4 °F 55.4 °F 63% 30.31 in 10.0 mi Calm Calm - N/A   Clear
12:15 PM 69.3 °F 54.9 °F 60% 30.31 in 10.0 mi SW 3.5 mph - N/A   Clear
12:35 PM 70.9 °F 55.0 °F 57% 30.30 in 10.0 mi WSW 5.8 mph - N/A   Scattered Clouds
12:55 PM 72.5 °F 54.9 °F 54% 30.29 in 10.0 mi SSW 8.1 mph - N/A   Mostly Cloudy
1:15 PM 73.6 °F 54.7 °F 51% 30.27 in 10.0 mi SSW 9.2 mph - N/A   Overcast
1:35 PM 72.0 °F 54.5 °F 54% 30.26 in 10.0 mi SW 4.6 mph - N/A   Mostly Cloudy
1:55 PM 75.2 °F 55.0 °F 49% 30.24 in 10.0 mi SSW 6.9 mph - N/A   Overcast
2:15 PM 73.4 °F 53.6 °F 50% 30.23 in 10.0 mi SW 4.6 mph - N/A   Overcast
2:35 PM 74.5 °F 54.3 °F 49% 30.22 in 10.0 mi South 6.9 mph - N/A   Scattered Clouds
2:55 PM 74.5 °F 54.0 °F 49% 30.21 in 10.0 mi SSW 5.8 mph - N/A   Clear
3:15 PM 74.3 °F 54.0 °F 49% 30.21 in 10.0 mi SW 4.6 mph - N/A   Clear
3:35 PM 73.9 °F 54.5 °F 51% 30.20 in 10.0 mi SW 5.8 mph - N/A   Scattered Clouds
3:55 PM 73.9 °F 54.7 °F 51% 30.20 in 10.0 mi West 4.6 mph - N/A   Scattered Clouds
4:15 PM 73.4 °F 54.1 °F 51% 30.20 in 10.0 mi Calm Calm - N/A   Mostly Cloudy
4:35 PM 72.9 °F 54.5 °F 52% 30.20 in 10.0 mi West 3.5 mph - N/A   Scattered Clouds
4:55 PM 72.0 °F 54.5 °F 54% 30.20 in 10.0 mi SW 3.5 mph - N/A   Clear
5:15 PM 71.6 °F 55.0 °F 56% 30.19 in 10.0 mi Calm Calm - N/A   Clear
5:35 PM 70.9 °F 55.8 °F 59% 30.18 in 10.0 mi Calm Calm - N/A   Clear
5:55 PM 68.2 °F 58.3 °F 71% 30.18 in 10.0 mi Calm Calm - N/A   Clear
6:15 PM 66.9 °F 57.6 °F 72% 30.19 in 10.0 mi Calm Calm - N/A   Clear
6:35 PM 66.2 °F 57.6 °F 74% 30.19 in 10.0 mi Calm Calm - N/A   Clear
6:55 PM 63.5 °F 57.2 °F 80% 30.20 in 10.0 mi Calm Calm - N/A   Clear
7:15 PM 62.4 °F 56.8 °F 82% 30.19 in 10.0 mi Calm Calm - N/A   Clear
8:55 PM 57.9 °F 55.4 °F 91% 30.21 in 10.0 mi Calm Calm - N/A   Clear
9:15 PM 58.3 °F 55.8 °F 91% 30.21 in 10.0 mi Calm Calm - N/A   Clear
9:35 PM 57.7 °F 55.0 °F 91% 30.21 in 10.0 mi Calm Calm - N/A   Clear
9:55 PM 56.1 °F 54.9 °F 96% 30.21 in 10.0 mi Calm Calm - N/A   Clear
10:15 PM 55.2 °F 54.0 °F 96% 30.21 in 10.0 mi Calm Calm - N/A   Scattered Clouds
10:35 PM 55.0 °F 53.6 °F 95% 30.22 in 10.0 mi Calm Calm - N/A   Clear
10:55 PM 54.9 °F 53.8 °F 96% 30.22 in 7.0 mi Calm Calm - N/A   Clear
11:15 PM 53.8 °F 52.7 °F 96% 30.22 in 10.0 mi Calm Calm - N/A   Clear
11:35 PM 54.3 °F 53.6 °F 97% 30.22 in 7.0 mi Calm Calm - N/A   Clear
11:55 PM 54.0 °F 53.1 °F 97% 30.21 in 7.0 mi Calm Calm - N/A   Clear